Location: Newark
(44.3681°N, 100.3364°W)
Time: 09:02:46
(UTC+00:00)

S-56A Canister/Altair - Pass Details

Date: 05 March 2020
Orbit: 634 x 2498 km, 38.9° (Epoch: 08 April)

Event Time Altitude Azimuth Distance (km) Brightness Sun altitude
Rises 18:48:59 0° 279° (W) 5,592 11.8 40.0°
Reaches altitude 10° 18:52:28 10° 276° (W) 4,770 11.6 40.0°
Maximum altitude 19:05:56 54° 205° (SSW) 2,870 12.1 39.9°
Drops below altitude 10° 19:20:03 10° 133° (SE) 4,965 12.2 39.6°
Sets 19:23:46 0° 129° (SE) 5,826 12.3 39.5°
